#timestamp,LO_Frequency,Hit,StdDev 
1672034415.5,286046997.1,N
1672034435.4,286046999.0,N
1672034455.2,286046999.0,N
1672034475.1,286046997.2,N
1672034476.0,286046997.2,N
1672034495.8,286046999.5,N
1672034515.6,286046999.6,N
1672034535.5,286047000.9,N
1672034555.3,286046998.5,N
1672034575.1,286046998.9,N
1672034595.9,286046998.8,N
1672034615.7,286046996.6,N
1672034635.6,286046996.6,N
1672034655.4,286046997.8,N
1672034675.2,286046997.0,N
1672034695.1,286046996.8,N
1672034696.0,286046996.8,N
1672034715.8,286046999.0,N
1672034735.6,286046999.7,N
1672034755.5,286047000.2,N
1672034775.3,286046998.3,N
1672034795.2,286047002.7,N
1672034815.9,286047000.9,N
1672034835.7,286046998.8,N
1672034855.6,286047001.1,N
1672034875.4,286047001.0,N
1672034895.2,286046998.6,N
1672034915.1,286046998.4,N
1672034916.0,286046998.4,N
1672034935.8,286046998.2,N
1672034955.7,286046998.5,N
1672034975.5,286046998.8,N
1672034995.3,286046996.9,N
1672035015.2,286046999.6,N
1672035035.0,286047000.3,N
1672035035.9,286047000.3,N
1672035055.7,286047000.0,N
1672035075.6,286047002.8,N
1672035095.4,286047001.5,N
1672035115.3,286047000.3,N
1672035135.1,286047001.0,N
1672035136.0,286047001.0,N
1672035155.8,286046998.4,N
1672035175.7,286046999.9,N
1672035195.5,286047001.0,N
1672035215.3,286046998.6,N
1672035235.2,286047001.2,N
1672035255.0,286046998.5,N
1672035255.9,286046998.5,N
1672035275.8,286046999.9,N
1672035295.6,286047002.7,N
1672035315.4,286047002.7,N
1672035335.3,286047000.7,N
1672035355.1,286047001.2,N
1672035405.9,286046999.1,E
1672035415.8,286046998.5,N
1672035435.6,286046998.4,P
1672035455.5,286046999.3,P
1672035475.3,286046998.4,Y
1672035495.1,286047000.8,P
1672035515.9,286047000.6,N
1672035535.7,286046998.2,N
1672035555.5,286046998.7,N
1672035575.4,286046999.4,N
1672035595.2,286047001.1,N
1672035615.1,286046999.3,N
1672035616.0,286046999.3,N
1672035635.8,286046998.3,N
1672035655.7,286046998.5,N
1672035675.5,286046998.3,N
1672035695.3,286046998.4,N
1672035715.2,286046998.7,N
1672035735.0,286046999.9,N
1672035735.9,286046999.9,N
1672035755.7,286047000.8,N
1672035775.6,286047000.7,N
1672035795.4,286046996.6,Y
1672035815.3,286046998.5,P
1672035835.1,286046998.2,P
1672035855.8,286047001.2,N
1672035875.7,286046998.8,N
1672035895.5,286046999.4,N
1672035915.4,286046998.4,N
1672035935.2,286046997.1,Y
1672035955.0,286046998.8,P
1672035955.9,286046998.8,P
1672035975.8,286046997.2,P
1672035995.6,286046998.7,N
1672036015.5,286046999.3,N
1672036035.3,286046998.4,N
1672036055.1,286046999.4,N
1672036075.9,286047000.9,N
1672036095.7,286047000.3,N
1672036115.5,286047000.0,N
1672036135.4,286047002.6,N
1672036155.2,286047004.0,Y
1672036175.1,286047002.1,P
1672036176.0,286047002.1,N
1672036195.8,286047000.3,N
1672036215.6,286047003.7,Y
1672036235.5,286047004.2,P
1672036255.3,286046999.7,N
1672036275.1,286046999.7,N
1672036295.9,286046999.8,N
1672036315.7,286047000.1,N
1672036335.6,286047001.2,N
1672036355.4,286046999.8,N
1672036375.2,286047001.1,N
1672036395.1,286047000.0,N
1672036396.0,286047000.0,N
1672036415.8,286047001.2,N
1672036435.6,286046998.3,N
1672036455.5,286047002.7,N
1672036475.3,286047003.5,N
1672036495.2,286047001.5,N
1672036515.9,286047001.9,N
1672036535.7,286047001.4,N
1672036555.6,286047001.7,N
1672036575.4,286046999.7,N
1672036595.2,286047002.4,N
1672036615.1,286047000.0,N
1672036616.0,286047000.0,N
1672036635.8,286047000.4,N
1672036655.7,286047001.0,N
1672036675.5,286047000.3,N
1672036695.3,286047000.3,N
1672036715.2,286047000.9,N
1672036735.0,286047000.2,N
1672036735.9,286047000.2,N
1672036755.7,286046999.9,N
1672036775.6,286047000.5,N
1672036825.5,286046998.3,E
1672036835.4,286046998.3,N
1672036855.2,286046999.9,P
1672036875.0,286047000.4,N
1672036876.0,286047000.4,N
1672036895.8,286047004.3,Y
1672036915.6,286047002.8,P
1672036935.5,286046999.9,N
1672036955.3,286047000.6,N
1672036975.1,286047002.0,N
1672036995.9,286047001.7,N
1672037015.7,286047001.9,N
1672037035.6,286047002.3,N
1672037055.4,286047003.8,Y
1672037075.2,286047001.3,P
1672037095.1,286046999.9,P
1672037096.0,286046999.9,N
1672037115.8,286046999.8,N
1672037135.7,286047001.7,N
1672037155.5,286047001.3,N
1672037175.3,286047001.4,N
1672037195.2,286047004.3,Y
1672037215.0,286047004.2,P
1672037215.9,286047004.2,N
1672037235.8,286047001.9,N
1672037255.6,286047000.1,N
1672037275.4,286047000.9,N
1672037295.3,286047000.7,N
1672037315.1,286047000.6,N
1672037335.8,286047000.1,N
1672037355.7,286047000.5,N
1672037375.5,286046998.2,N
1672037395.4,286047001.4,N
1672037415.2,286047000.7,N
1672037435.0,286046999.9,N
1672037435.9,286046999.9,N
1672037455.8,286046999.9,N
1672037475.6,286046998.3,N
1672037495.5,286046998.2,N
1672037515.3,286047001.1,N
1672037535.1,286046998.6,N
1672037555.9,286046998.4,N
1672037575.7,286046999.1,N
1672037595.5,286047000.5,N
1672037615.4,286047002.3,N
1672037635.2,286047001.8,N
1672037655.1,286047005.4,Y
1672037656.0,286047005.4,P
1672037675.8,286047005.8,N
1672037695.6,286047001.7,N
1672037715.5,286047002.7,N
1672037735.3,286046999.7,N
1672037755.2,286047000.1,N
1672037775.9,286047002.3,N
1672037795.7,286047001.9,N
1672037815.6,286047002.0,N
1672037835.4,286047001.7,N
1672037855.2,286047003.8,N
1672037875.1,286047003.8,N
1672037876.0,286047003.8,N
1672037895.8,286047003.1,N
1672037915.7,286047002.2,N
1672037935.5,286047002.4,N
1672037955.3,286047001.1,N
1672037975.2,286047001.0,N
1672037995.0,286047002.1,N
1672037995.9,286047002.1,N
